Location: Les Martinières
(47.2667°N, 1.4410°E)
Time: 23:23:40
(UTC+00:00)

Cosmos 2233 Rocket - Pass Details

Date: 15 May 2026
Orbit: 952 x 990 km, 82.9° (Epoch: 6 June)

Event Time Altitude Azimuth Distance (km) Brightness Sun altitude
Rises 20:05:45 0° 177° (S) 3,649 6.6 -6.7°
Reaches altitude 10° 20:08:16 10° 174° (S) 2,701 5.9 -7.1°
Maximum altitude 20:14:21 65° 94° (E) 1,051 4.0 -7.9°
Drops below altitude 10° 20:20:27 10° 14° (NNE) 2,696 6.7 -8.7°
Sets 20:22:58 0° 12° (NNE) 3,643 7.4 -9.0°
